EW8564 Weather Reports


time (UTC)temp
C
wind
direction
speed
KPH
gust
KPH
rain 1hr
cm
rain 24hr
cm
rain mn
cm
humidity
%
barometer
mb
20260503020334 22 237 0.0 0.0 0.00 0.00 0.00 32 1006.1
20260503015332 23 240 0.0 0.0 0.00 0.00 0.00 27 1006.1
20260503014330 23 234 0.0 0.0 0.00 0.00 0.00 27 1006.1
20260503013328 23 232 0.0 0.0 0.00 0.00 0.00 26 1006.1
20260503012327 23 232 0.0 0.0 0.00 0.00 0.00 23 1006.1
20260503011326 23 248 0.0 3.2 0.00 0.00 0.00 22 1006.1
20260503010325 23 248 0.0 6.4 0.00 0.00 0.00 21 1006.4
20260503005323 23 250 0.0 6.4 0.00 0.00 0.00 21 1006.4
20260503004323 23 294 1.6 9.7 0.00 0.00 0.00 20 1006.4
20260503003322 23 264 1.6 9.7 0.00 0.00 0.00 18 1006.4
20260503002321 24 287 3.2 12.9 0.00 0.00 0.00 18 1006.4
20260503001320 23 307 1.6 12.9 0.00 0.00 0.00 18 1006.4
20260503000320 23 282 1.6 11.3 0.00 0.00 0.00 18 1006.4
20260502235318 23 309 6.4 24.1 0.00 0.00 0.00 17 1006.8
20260502234317 23 310 1.6 24.1 0.00 0.00 0.00 19 1006.8
20260502233316 24 295 4.8 12.9 0.00 0.00 0.00 18 1006.8
20260502232315 24 294 3.2 14.5 0.00 0.00 0.00 19 1006.8
20260502231315 24 298 6.4 14.5 0.00 0.00 0.00 18 1007.1
20260502230314 24 298 0.0 11.3 0.00 0.00 0.00 18 1007.1
20260502225313 24 338 0.0 8.0 0.00 0.00 0.00 18 1007.5
20260502224310 23 75 0.0 9.7 0.00 0.00 0.00 20 1007.5
20260502223238 23 339 1.6 9.7 0.00 0.00 0.00 19 1007.5
20260502222237 23 325 1.6 20.9 0.00 0.00 0.00 19 1007.8
20260502221236 23 316 3.2 20.9 0.00 0.00 0.00 20 1007.8
20260502220203 23 304 6.4 11.3 0.00 0.00 0.00 18 1008.1
20260502215201 23 315 0.0 22.5 0.00 0.00 0.00 21 1008.1
20260502214130 23 319 1.6 22.5 0.00 0.00 0.00 18 1008.5
20260502213128 23 327 3.2 14.5 0.00 0.00 0.00 19 1008.5
20260502212128 23 328 3.2 20.9 0.00 0.00 0.00 19 1008.5
20260502211127 23 313 6.4 20.9 0.00 0.00 0.00 19 1008.5
20260502210126 23 307 6.4 20.9 0.00 0.00 0.00 19 1008.5
20260502205124 22 308 1.6 22.5 0.00 0.00 0.00 18 1008.8
20260502204122 22 324 1.6 22.5 0.00 0.00 0.00 19 1008.8
20260502203121 22 316 3.2 24.1 0.00 0.00 0.00 19 1009.1
20260502202120 22 324 6.4 24.1 0.00 0.00 0.00 17 1009.1
20260502201120 22 319 3.2 24.1 0.00 0.00 0.00 20 1009.1
20260502200047 22 341 4.8 24.1 0.00 0.00 0.00 22 1009.1
20260502195046 22 312 9.7 22.5 0.00 0.00 0.00 20 1009.1
20260502194045 21 312 6.4 19.3 0.00 0.00 0.00 23 1009.5
20260502193044 21 317 3.2 20.9 0.00 0.00 0.00 28 1009.8
20260502192043 21 316 1.6 20.9 0.00 0.00 0.00 30 1009.8
20260502191010 20 316 1.6 19.3 0.00 0.00 0.00 33 1009.8
20260502185938 20 299 3.2 16.1 0.00 0.00 0.00 34 1010.2
20260502184937 19 304 3.2 16.1 0.00 0.00 0.00 35 1010.2
20260502183936 18 299 4.8 19.3 0.00 0.00 0.00 35 1010.5
20260502182934 18 283 6.4 19.3 0.00 0.00 0.00 38 1010.8
20260502181933 17 322 3.2 20.9 0.00 0.00 0.00 39 1010.8
20260502180932 17 303 3.2 20.9 0.00 0.00 0.00 41 1011.2
20260502163747 14 337 0.0 3.2 0.00 0.00 0.00 46 1012.2
20260502162746 13 101 0.0 0.0 0.00 0.00 0.00 49 1012.2
20260502161745 13 120 0.0 0.0 0.00 0.00 0.00 50 1012.5
20260502160744 12 360 0.0 0.0 0.00 0.00 0.00 52 1012.5
20260502151703 8 296 0.0 1.6 0.00 0.03 0.00 67 1013.2
20260502150703 8 282 0.0 1.6 0.00 0.03 0.00 70 1013.2
20260502130339 5 175 0.0 3.2 0.00 0.03 0.00 81 1013.2
20260502123233 3 152 0.0 0.0 0.00 0.03 0.00 83 1013.2
20260502122232 3 152 0.0 0.0 0.00 0.03 0.00 83 1013.2
20260502121231 3 152 0.0 0.0 0.00 0.03 0.00 83 1013.2
20260502120159 3 152 0.0 0.0 0.00 0.03 0.00 83 1013.2
20260502115127 3 152 0.0 0.0 0.00 0.03 0.00 83 1013.2
20260502114126 3 152 0.0 0.0 0.00 0.03 0.00 82 1013.2
20260502113125 4 152 0.0 0.0 0.00 0.03 0.00 82 1013.2
20260502112124 4 152 0.0 0.0 0.00 0.03 0.00 81 1012.9
20260502111123 4 152 0.0 0.0 0.00 0.03 0.00 81 1013.2
20260502110050 4 152 0.0 0.0 0.00 0.03 0.00 80 1012.9
20260502105049 4 152 0.0 0.0 0.00 0.03 0.00 80 1012.9
20260502104049 4 152 0.0 0.0 0.00 0.03 0.00 80 1012.9
20260502103048 5 152 0.0 0.0 0.00 0.03 0.00 79 1012.9
20260502102047 5 152 0.0 0.0 0.00 0.03 0.00 79 1012.5
20260502101015 5 152 0.0 0.0 0.00 0.03 0.00 78 1012.5
20260502090905 6 152 0.0 0.0 0.00 0.03 0.00 75 1012.2
20260502070543 8 153 0.0 0.0 0.00 0.03 0.00 67 1011.5
20260502065542 8 152 0.0 0.0 0.00 0.03 0.00 67 1011.5
20260502064510 8 152 0.0 0.0 0.00 0.03 0.00 67 1011.5
20260502063509 8 152 0.0 0.0 0.00 0.03 0.00 67 1011.2
20260502062508 9 152 0.0 0.0 0.00 0.03 0.00 66 1011.2
20260502061506 9 152 0.0 0.0 0.00 0.03 0.00 66 1011.2
20260502060504 9 152 0.0 0.0 0.00 0.03 0.00 65 1011.2
20260502055504 10 152 0.0 0.0 0.00 0.03 0.03 66 1011.2
20260502054503 10 152 0.0 0.0 0.00 0.03 0.03 63 1010.8
20260502053502 10 152 0.0 0.0 0.00 0.03 0.03 62 1010.8
20260502052429 10 152 0.0 0.0 0.00 0.03 0.03 61 1010.8
20260502051427 10 152 0.0 0.0 0.00 0.03 0.03 61 1010.8
20260502050427 10 152 0.0 0.0 0.00 0.03 0.03 61 1010.8
20260502045426 11 152 0.0 0.0 0.00 0.03 0.03 62 1010.5
20260502044425 11 153 0.0 0.0 0.00 0.03 0.03 61 1010.5
20260502043424 11 153 0.0 0.0 0.00 0.03 0.03 61 1010.5
20260502042423 12 153 0.0 0.0 0.00 0.03 0.03 59 1010.5
20260502041423 12 153 0.0 0.0 0.00 0.03 0.03 57 1010.5
20260502040422 12 152 0.0 0.0 0.00 0.03 0.03 57 1010.2
20260502035420 12 137 0.0 0.0 0.00 0.03 0.03 56 1010.2
20260502034419 13 125 0.0 0.0 0.00 0.03 0.03 55 1010.2
20260502033418 14 125 0.0 0.0 0.00 0.03 0.03 53 1009.8
20260502032418 14 125 0.0 0.0 0.00 0.03 0.03 50 1009.8
20260502031416 15 132 0.0 0.0 0.00 0.03 0.03 50 1009.5
20260502030312 16 132 0.0 0.0 0.00 0.03 0.03 49 1009.5
20260502025312 16 132 0.0 0.0 0.00 0.03 0.03 47 1009.1
20260502024311 17 132 0.0 0.0 0.00 0.03 0.03 44 1009.1
20260502023309 17 133 0.0 0.0 0.00 0.03 0.03 44 1009.1
20260502022308 18 133 0.0 0.0 0.00 0.03 0.03 42 1009.1
20260502021307 18 133 0.0 0.0 0.00 0.03 0.03 36 1009.1